TimeMDT,TemperatureF,Dew PointF,Humidity,Sea Level PressureIn,VisibilityMPH,Wind Direction,Wind SpeedMPH,Gust SpeedMPH,PrecipitationIn,Events,Conditions,WindDirDegrees,DateUTC
12:55 AM,42.1,24.1,49,29.99,10.0,Calm,Calm,-,N/A,,Clear,0,2013-04-03 06:55:00
1:55 AM,42.1,25.0,51,29.99,10.0,Calm,Calm,-,N/A,,Clear,0,2013-04-03 07:55:00
2:55 AM,41.0,24.1,51,30.01,10.0,South,4.6,-,N/A,,Clear,170,2013-04-03 08:55:00
3:55 AM,34.0,21.9,61,30.04,10.0,Calm,Calm,-,N/A,,Clear,0,2013-04-03 09:55:00
4:55 AM,36.0,23.0,59,30.04,10.0,Calm,Calm,-,N/A,,Clear,0,2013-04-03 10:55:00
5:55 AM,36.0,23.0,59,30.05,10.0,Calm,Calm,-,N/A,,Clear,0,2013-04-03 11:55:00
6:55 AM,36.0,24.1,62,30.06,10.0,Calm,Calm,-,N/A,,Clear,0,2013-04-03 12:55:00
7:55 AM,35.1,24.1,64,30.09,10.0,Calm,Calm,-,N/A,,Clear,0,2013-04-03 13:55:00
8:55 AM,39.0,25.0,57,30.10,10.0,Calm,Calm,-,N/A,,Clear,0,2013-04-03 14:55:00
9:55 AM,44.1,27.0,51,30.11,10.0,Calm,Calm,-,N/A,,Overcast,0,2013-04-03 15:55:00
10:55 AM,48.9,27.0,43,30.09,10.0,Calm,Calm,-,N/A,,Mostly Cloudy,0,2013-04-03 16:55:00
11:55 AM,54.0,27.0,35,30.07,10.0,SSE,5.8,-,N/A,,Scattered Clouds,150,2013-04-03 17:55:00
12:55 PM,55.9,25.0,30,30.05,10.0,SSE,4.6,-,N/A,,Overcast,150,2013-04-03 18:55:00
1:55 PM,61.0,25.0,25,30.01,10.0,Calm,Calm,-,N/A,,Mostly Cloudy,0,2013-04-03 19:55:00
2:55 PM,60.1,24.1,25,30.00,10.0,Calm,Calm,-,N/A,,Overcast,0,2013-04-03 20:55:00
3:55 PM,63.0,23.0,22,29.99,10.0,Calm,Calm,-,N/A,,Overcast,0,2013-04-03 21:55:00
4:55 PM,64.0,21.0,19,29.99,10.0,West,15.0,23.0,N/A,,Mostly Cloudy,270,2013-04-03 22:55:00
5:55 PM,62.1,21.0,21,30.00,10.0,West,8.1,-,N/A,,Mostly Cloudy,270,2013-04-03 23:55:00
6:55 PM,61.0,19.9,21,30.00,10.0,WSW,6.9,-,N/A,,Clear,250,2013-04-04 00:55:00
7:55 PM,57.0,21.0,25,30.01,10.0,West,10.4,-,N/A,,Clear,270,2013-04-04 01:55:00
8:55 PM,54.0,21.9,29,30.01,10.0,WSW,9.2,-,N/A,,Clear,240,2013-04-04 02:55:00
9:55 PM,46.9,23.0,39,30.04,10.0,SE,5.8,-,N/A,,Clear,140,2013-04-04 03:55:00
10:55 PM,46.0,24.1,42,30.03,10.0,SE,3.5,-,N/A,,Clear,140,2013-04-04 04:55:00
11:55 PM,45.0,23.0,42,30.02,10.0,Calm,Calm,-,N/A,,Clear,0,2013-04-04 05:55:00